Zurück zum Katalog

GEESAT 6-05

AktivKommunikationLEO
NORAD 65717·PAYLOAD·🇨🇳 China

Gestartet Sep 24, 2025 von Yellow Sea Launch Area

Loading…

Nächste Überflüge (nächste 24 Stunden)

TLE

AktuellSource: Space-Track

Epoche: Sep 14, 2026, 16:53 UTC

1 65717U 25214F   26257.70382907  .00001048  00000-0  15299-3 0  9990
2 65717  49.9789 253.4320 0012552 198.2383 161.8106 14.83606285 52791

Verfolge GEESAT 6-05 in Echtzeit mit AllMySat

Download on the App Store